Stündliche Wetter Otoki

Heute, 10 April, Samstag

Zeit Temperatur Niederschläge Wind Luftdruck Luftfeuchtigkeit
00:00 +2°C° 0 mm 5 m/S 751 mmHg 68%
01:00 +2°C° 0 mm 5 m/S 751 mmHg 69%
02:00 +2°C° 0 mm 5 m/S 751 mmHg 69%
03:00 +2°C° 0 mm 5 m/S 751 mmHg 70%
04:00 +1°C° 0 mm 5 m/S 751 mmHg 71%
05:00 +1°C° 0 mm 5 m/S 751 mmHg 72%
06:00 +2°C° 0 mm 5 m/S 751 mmHg 70%
07:00 +2°C° 0 mm 6 m/S 751 mmHg 69%
08:00 +3°C° 0 mm 6 m/S 751 mmHg 66%
09:00 +5°C° 0 mm 6 m/S 751 mmHg 62%
10:00 +6°C° 0 mm 7 m/S 751 mmHg 57%
11:00 +9°C° 0 mm 7 m/S 751 mmHg 52%
12:00 +9°C° 0 mm 7 m/S 751 mmHg 50%
13:00 +10°C° 0 mm 7 m/S 751 mmHg 48%
14:00 +11°C° 0 mm 7 m/S 750 mmHg 47%
15:00 +11°C° 0 mm 7 m/S 750 mmHg 49%
16:00 +10°C° 0 mm 6 m/S 751 mmHg 51%
17:00 +10°C° 0 mm 5 m/S 751 mmHg 54%
18:00 +9°C° 0 mm 5 m/S 751 mmHg 60%
19:00 +8°C° 0 mm 4 m/S 751 mmHg 65%
20:00 +9°C° 0 mm 3 m/S 752 mmHg 71%
21:00 +8°C° 0.2 mm 2 m/S 752 mmHg 77%
22:00 +7°C° 0.2 mm 2 m/S 752 mmHg 82%
23:00 +8°C° 0.2 mm 1 m/S 753 mmHg 87%

Morgen, 11 April, Sonntag

Zeit Temperatur Niederschläge Wind Luftdruck Luftfeuchtigkeit
00:00 +8°C° 0.4 mm 1 m/S 753 mmHg 88%
01:00 +6°C° 0.4 mm 2 m/S 753 mmHg 89%
02:00 +6°C° 0.4 mm 2 m/S 754 mmHg 91%
03:00 +6°C° 0.1 mm 2 m/S 754 mmHg 91%
04:00 +6°C° 0.1 mm 2 m/S 754 mmHg 91%
05:00 +6°C° 0.1 mm 1 m/S 754 mmHg 92%
06:00 +7°C° 0 mm 1 m/S 755 mmHg 89%
07:00 +7°C° 0 mm 2 m/S 755 mmHg 86%
08:00 +7°C° 0 mm 2 m/S 755 mmHg 83%
09:00 +8°C° 0 mm 2 m/S 756 mmHg 79%
10:00 +9°C° 0 mm 2 m/S 756 mmHg 76%
11:00 +9°C° 0 mm 2 m/S 756 mmHg 73%
12:00 +11°C° 0 mm 3 m/S 756 mmHg 68%
13:00 +12°C° 0 mm 3 m/S 756 mmHg 63%
14:00 +14°C° 0 mm 3 m/S 757 mmHg 58%
15:00 +14°C° 0 mm 3 m/S 757 mmHg 58%
16:00 +14°C° 0 mm 3 m/S 756 mmHg 58%
17:00 +14°C° 0 mm 3 m/S 756 mmHg 58%
18:00 +13°C° 0 mm 3 m/S 757 mmHg 63%
19:00 +11°C° 0 mm 3 m/S 757 mmHg 68%
20:00 +10°C° 0 mm 3 m/S 757 mmHg 73%
21:00 +9°C° 0 mm 3 m/S 757 mmHg 75%
22:00 +9°C° 0 mm 3 m/S 758 mmHg 76%
23:00 +8°C° 0 mm 3 m/S 758 mmHg 77%

übermorgen, 12 April, Montag

Zeit Temperatur Niederschläge Wind Luftdruck Luftfeuchtigkeit
00:00 +7°C° 0 mm 3 m/S 758 mmHg 77%
01:00 +7°C° 0 mm 3 m/S 758 mmHg 78%
02:00 +5°C° 0 mm 3 m/S 758 mmHg 78%
03:00 +5°C° 0 mm 3 m/S 758 mmHg 79%
04:00 +4°C° 0 mm 3 m/S 758 mmHg 79%
05:00 +4°C° 0 mm 3 m/S 758 mmHg 79%
06:00 +5°C° 0 mm 3 m/S 758 mmHg 74%
07:00 +7°C° 0 mm 4 m/S 757 mmHg 69%
08:00 +8°C° 0 mm 4 m/S 757 mmHg 63%
09:00 +11°C° 0 mm 4 m/S 757 mmHg 57%
10:00 +12°C° 0 mm 5 m/S 757 mmHg 52%
11:00 +14°C° 0 mm 5 m/S 757 mmHg 46%
12:00 +14°C° 0 mm 5 m/S 756 mmHg 44%
13:00 +15°C° 0 mm 5 m/S 756 mmHg 42%
14:00 +15°C° 0 mm 5 m/S 755 mmHg 40%
15:00 +15°C° 0 mm 4 m/S 755 mmHg 41%
16:00 +15°C° 0 mm 4 m/S 754 mmHg 43%
17:00 +15°C° 0 mm 4 m/S 754 mmHg 45%
18:00 +13°C° 0 mm 3 m/S 754 mmHg 52%
19:00 +11°C° 0 mm 3 m/S 754 mmHg 58%
20:00 +9°C° 0 mm 3 m/S 754 mmHg 65%
21:00 +9°C° 0 mm 3 m/S 753 mmHg 67%
22:00 +8°C° 0 mm 2 m/S 753 mmHg 69%
23:00 +8°C° 0 mm 2 m/S 753 mmHg 71%

13 April, Dienstag

Zeit Temperatur Niederschläge Wind Luftdruck Luftfeuchtigkeit
00:00 +7°C° 0 mm 2 m/S 753 mmHg 74%
01:00 +6°C° 0 mm 2 m/S 753 mmHg 77%
02:00 +6°C° 0 mm 2 m/S 753 mmHg 80%
03:00 +6°C° 0 mm 2 m/S 753 mmHg 82%
04:00 +5°C° 0 mm 2 m/S 753 mmHg 85%
05:00 +5°C° 0 mm 2 m/S 753 mmHg 87%
06:00 +6°C° 0 mm 2 m/S 753 mmHg 81%
07:00 +8°C° 0 mm 2 m/S 752 mmHg 75%
08:00 +10°C° 0 mm 2 m/S 752 mmHg 69%
09:00 +12°C° 0 mm 2 m/S 752 mmHg 62%
10:00 +14°C° 0 mm 2 m/S 752 mmHg 55%
11:00 +16°C° 0 mm 2 m/S 752 mmHg 48%
12:00 +16°C° 0 mm 2 m/S 751 mmHg 45%
13:00 +17°C° 0 mm 2 m/S 751 mmHg 43%
14:00 +18°C° 0 mm 2 m/S 751 mmHg 40%
15:00 +18°C° 0 mm 2 m/S 751 mmHg 43%
16:00 +17°C° 0 mm 2 m/S 750 mmHg 45%
17:00 +17°C° 0 mm 2 m/S 750 mmHg 48%
18:00 +16°C° 0 mm 2 m/S 750 mmHg 56%
19:00 +14°C° 0 mm 2 m/S 750 mmHg 65%
20:00 +12°C° 0 mm 2 m/S 750 mmHg 74%
21:00 +12°C° 0 mm 2 m/S 750 mmHg 78%
22:00 +12°C° 0 mm 2 m/S 750 mmHg 82%
23:00 +10°C° 0 mm 2 m/S 750 mmHg 86%

14 April, Mittwoch

Zeit Temperatur Niederschläge Wind Luftdruck Luftfeuchtigkeit
00:00 +10°C° 0 mm 2 m/S 750 mmHg 88%
01:00 +10°C° 0 mm 2 m/S 749 mmHg 90%
02:00 +9°C° 0 mm 2 m/S 749 mmHg 91%
03:00 +9°C° 0 mm 2 m/S 749 mmHg 92%
04:00 +9°C° 0 mm 2 m/S 749 mmHg 92%
05:00 +9°C° 0 mm 2 m/S 749 mmHg 93%
06:00 +10°C° 0 mm 2 m/S 749 mmHg 90%
07:00 +12°C° 0 mm 2 m/S 749 mmHg 87%
08:00 +12°C° 0 mm 2 m/S 749 mmHg 84%
09:00 +13°C° 0.2 mm 2 m/S 749 mmHg 83%
10:00 +12°C° 0.2 mm 3 m/S 748 mmHg 82%
11:00 +13°C° 0.2 mm 3 m/S 748 mmHg 81%
12:00 +13°C° 0.2 mm 3 m/S 748 mmHg 78%
13:00 +14°C° 0.2 mm 3 m/S 748 mmHg 75%
14:00 +14°C° 0.2 mm 3 m/S 748 mmHg 73%
15:00 +14°C° 0.4 mm 3 m/S 748 mmHg 73%
16:00 +14°C° 0.4 mm 3 m/S 747 mmHg 73%
17:00 +14°C° 0.4 mm 3 m/S 747 mmHg 73%
18:00 +12°C° 0.2 mm 3 m/S 747 mmHg 77%
19:00 +12°C° 0.2 mm 2 m/S 748 mmHg 81%
20:00 +10°C° 0.2 mm 2 m/S 748 mmHg 85%
21:00 +10°C° 0 mm 2 m/S 748 mmHg 86%
22:00 +10°C° 0 mm 2 m/S 748 mmHg 86%
23:00 +11°C° 0 mm 1 m/S 748 mmHg 86%

15 April, Donnerstag

Zeit Temperatur Niederschläge Wind Luftdruck Luftfeuchtigkeit
00:00 +11°C° 0.1 mm 1 m/S 748 mmHg 87%
01:00 +9°C° 0.1 mm 2 m/S 748 mmHg 88%
02:00 +9°C° 0.1 mm 2 m/S 748 mmHg 89%
03:00 +9°C° 0.1 mm 2 m/S 748 mmHg 90%
04:00 +9°C° 0.1 mm 2 m/S 748 mmHg 90%
05:00 +9°C° 0.1 mm 2 m/S 748 mmHg 91%
06:00 +9°C° 0 mm 2 m/S 749 mmHg 89%
07:00 +9°C° 0 mm 2 m/S 749 mmHg 88%
08:00 +10°C° 0 mm 3 m/S 749 mmHg 86%
09:00 +10°C° 0 mm 3 m/S 749 mmHg 83%
10:00 +11°C° 0 mm 3 m/S 749 mmHg 80%
11:00 +11°C° 0 mm 4 m/S 750 mmHg 77%
12:00 +12°C° 0 mm 4 m/S 750 mmHg 75%
13:00 +12°C° 0 mm 5 m/S 750 mmHg 72%
14:00 +11°C° 0 mm 6 m/S 750 mmHg 70%
15:00 +10°C° 0 mm 6 m/S 750 mmHg 73%
16:00 +9°C° 0 mm 6 m/S 750 mmHg 76%
17:00 +8°C° 0 mm 6 m/S 750 mmHg 79%
18:00 +6°C° 0 mm 7 m/S 750 mmHg 78%
19:00 +5°C° 0 mm 7 m/S 751 mmHg 78%
20:00 +4°C° 0 mm 7 m/S 751 mmHg 78%
21:00 +3°C° 0 mm 7 m/S 751 mmHg 74%
22:00 +3°C° 0 mm 7 m/S 751 mmHg 70%
23:00 +3°C° 0 mm 7 m/S 751 mmHg 66%
Mehr zeigen

Wir brauchen deine Erlaubnis

Meteoprog und unser Service Anbieter werden persönliche Daten aufbewahren, so wie Cookies, Geräte Bezeichnung oder ähnliche Technologien von deinem Gerät und Prozess, so wie Persönliche Daten Inhalte und Werbungen, genauso wie social Media und den Verkehr zu analysieren.

  • Aufbewahrung und/oder Zugang zu deiner Geräte Informationen.

    Cookies, Geräte Bezeichnung oder andere Informationen, können aufbewahrt oder Zugang zu deinem Gerät erhalten, für den Grund, der oben angegeben wird.

  • Personalisierte Werbung und Inhalte, Messungen, Einblick in das Publikum und Produkt Entwicklung.

    Werbungen und Inhalte können personalisiert werden, basierend auf ein Profil. Mehr Daten können besser personalisierte Werbungen und Inhalte hinzufügen. Werbung und Inhalte können gezeigt und gemessen werden. Einblicke über das Publikum, welche die Werbung gesehen haben und den Inhalt, können abgeleitet werden. So wie Daten können genutzt werden, um es zu verbessern oder die Benutzer Erfahrung zu verbessern das System und die Software.

Wenn du “Ich stimme zu” klickst, erlaubst du uns, die Cookies zu benutzen die Geräte Bezeichnung, den Web oder ähnliche Technologien zu benutzen. Deine Settings, können in deinem Gerät bei deinem Browser geändert werden.

Für den bestimmten Zweck, berechtigten Interessen beruhen darauf, mehr als auf den Inhalt. Du kannst mehr darüber in unseren Privaten und Cookie Politik lesen.